Location: Altmatt
(47.1333°N, 8.7000°E)
Time: 16:56:44
(UTC+00:00)

Cosmos 1346 Rocket - Pass Details

Date: 13 July 2020
Orbit: 533 x 545 km, 81.2° (Epoch: 12 August)

Event Time Altitude Azimuth Distance (km) Brightness Sun altitude
Exits shadow 21:27:03 18° 100° (E) 1,350 4.4 -15.8°
Maximum altitude 21:27:36 19° 89° (E) 1,329 4.5 -15.8°
Drops below altitude 10° 21:30:23 10° 44° (NE) 1,798 5.6 -16.0°
Sets 21:33:01 0° 26° (NNE) 2,697 6.9 -16.2°
